IZ3ZOD-13 Weather Reports


Display with metric or nautical units.
time (UTC)temp
F
wind
direction
speed
MPH
gust
MPH
rain 1hr
in
rain 24hr
in
rain mn
in
humidity
%
barometer
mb
20260506154803 65 83 3.0 6.0 0.00 0.53 0.53 82 1009.3
20260506154615 65 76 3.0 6.0 0.00 0.53 0.53 83 1009.5
20260506154214 65 64 3.0 6.0 0.00 0.53 0.53 86 1009.4
20260506153603 65 58 3.0 6.0 0.00 0.53 0.53 86 1009.3
20260506153203 65 68 3.0 4.0 0.00 0.53 0.53 87 1009.4
20260506152803 64 76 3.0 4.0 0.00 0.53 0.53 86 1009.3
20260506152403 64 88 2.0 4.0 0.00 0.53 0.53 87 1009.3
20260506152003 64 95 2.0 6.0 0.00 0.53 0.53 88 1009.4
20260506151603 64 88 3.0 8.0 0.00 0.53 0.53 88 1009.2
20260506151203 64 83 4.0 8.0 0.00 0.53 0.53 89 1009.3
20260506150803 64 82 4.0 6.0 0.00 0.53 0.53 88 1009.4
20260506150403 64 81 4.0 6.0 0.00 0.53 0.53 88 1009.5
20260506150003 64 67 4.0 8.0 0.00 0.53 0.53 87 1009.6
20260506145603 64 53 4.0 8.0 0.00 0.53 0.53 86 1009.3
20260506145203 64 39 4.0 8.0 0.00 0.53 0.53 85 1009.4
20260506144803 64 33 3.0 7.0 0.00 0.53 0.53 86 1009.3
20260506144403 64 40 3.0 7.0 0.00 0.53 0.53 86 1009.4
20260506144003 64 49 3.0 7.0 0.00 0.53 0.53 86 1009.5
20260506143814 64 51 3.0 7.0 0.00 0.53 0.53 86 1009.4
20260506143203 63 50 3.0 6.0 0.00 0.53 0.53 86 1009.7
20260506142803 63 51 3.0 6.0 0.00 0.53 0.53 88 1009.6
20260506142403 64 56 4.0 8.0 0.00 0.53 0.53 88 1009.5
20260506142004 64 48 3.0 8.0 0.00 0.53 0.53 90 1009.4
20260506141603 64 48 4.0 8.0 0.00 0.53 0.53 90 1009.4
20260506141203 63 50 4.0 6.0 0.00 0.53 0.53 91 1009.4
20260506140803 63 51 4.0 7.0 0.00 0.53 0.53 90 1009.5
20260506140403 63 51 4.0 7.0 0.00 0.53 0.53 91 1009.5
20260506140004 63 51 4.0 6.0 0.00 0.53 0.53 92 1009.5
20260506135603 63 47 4.0 8.0 0.03 0.53 0.53 92 1009.6
20260506135203 63 37 5.0 8.0 0.07 0.53 0.53 92 1009.6
20260506134803 63 34 5.0 7.0 0.14 0.53 0.53 92 1009.4
20260506134616 63 35 5.0 7.0 0.19 0.53 0.53 92 1009.4
20260506134003 62 48 5.0 7.0 0.29 0.53 0.53 93 1009.6
20260506133603 62 47 5.0 9.0 0.31 0.53 0.53 92 1009.5
20260506133203 62 42 5.0 9.0 0.35 0.53 0.53 93 1009.5
20260506132803 62 44 5.0 8.0 0.36 0.53 0.53 93 1009.7
20260506132403 62 45 5.0 8.0 0.36 0.53 0.53 93 1009.7
20260506132003 62 45 6.0 8.0 0.37 0.53 0.53 93 1009.9
20260506131603 62 44 6.0 11.0 0.37 0.53 0.53 93 1010.0
20260506131203 62 45 6.0 11.0 0.37 0.53 0.53 93 1009.9
20260506130803 62 46 5.0 9.0 0.37 0.53 0.53 93 1009.8
20260506130615 62 43 4.0 9.0 0.37 0.53 0.53 94 1009.8
20260506130004 62 50 4.0 7.0 0.37 0.53 0.53 93 1009.7
20260506125603 62 49 4.0 7.0 0.34 0.50 0.50 92 1009.9
20260506125413 62 52 3.0 6.0 0.33 0.49 0.49 92 1009.9
20260506124803 62 10 0.0 3.0 0.23 0.39 0.39 91 1010.1
20260506124403 63 35 1.0 3.0 0.14 0.30 0.30 91 1010.2
20260506124003 63 46 1.0 3.0 0.08 0.24 0.24 90 1010.1
20260506123816 63 49 1.0 3.0 0.07 0.23 0.23 90 1010.1
20260506123203 63 50 2.0 4.0 0.02 0.18 0.18 89 1010.1
20260506122803 63 45 3.0 5.0 0.01 0.17 0.17 89 1010.0
20260506122614 63 44 3.0 5.0 0.01 0.17 0.17 88 1010.0
20260506122003 64 44 4.0 8.0 0.00 0.16 0.16 89 1010.0
20260506121603 63 49 5.0 8.0 0.00 0.16 0.16 89 1009.9
20260506121203 63 50 4.0 8.0 0.00 0.16 0.16 90 1009.9
20260506121016 63 56 4.0 7.0 0.00 0.16 0.16 89 1010.0
20260506120616 63 71 5.0 8.0 0.00 0.16 0.16 90 1010.0
20260506120003 63 75 6.0 8.0 0.00 0.16 0.16 89 1010.1
20260506115603 63 72 6.0 9.0 0.00 0.16 0.16 89 1010.1
20260506115203 63 68 5.0 9.0 0.00 0.16 0.16 88 1010.1
20260506114803 63 61 5.0 9.0 0.00 0.16 0.16 88 1010.3
20260506114403 63 56 5.0 10.0 0.00 0.16 0.16 88 1010.3
20260506114217 63 55 6.0 10.0 0.00 0.16 0.16 88 1010.3
20260506113817 63 53 6.0 10.0 0.00 0.16 0.16 87 1010.4
20260506113203 63 50 5.0 9.0 0.00 0.16 0.16 87 1010.5
20260506112803 63 57 5.0 9.0 0.00 0.16 0.16 87 1010.5
20260506112614 64 60 5.0 9.0 0.00 0.16 0.16 86 1010.4
20260506112214 64 73 4.0 9.0 0.00 0.16 0.16 86 1010.6
20260506111603 63 72 5.0 9.0 0.00 0.16 0.16 86 1010.6
20260506111203 64 65 5.0 9.0 0.00 0.16 0.16 86 1010.6
20260506110803 64 57 5.0 9.0 0.00 0.16 0.16 86 1010.7
20260506110403 64 61 4.0 8.0 0.00 0.16 0.16 86 1010.8
20260506110003 63 72 4.0 8.0 0.00 0.16 0.16 86 1010.8
20260506105815 63 75 4.0 9.0 0.00 0.16 0.16 87 1010.5
20260506105203 62 73 4.0 9.0 0.00 0.16 0.16 88 1010.8
20260506104803 63 73 4.0 6.0 0.00 0.16 0.16 89 1011.0
20260506104403 63 76 4.0 6.0 0.00 0.16 0.16 89 1011.0
20260506104213 62 80 5.0 8.0 0.00 0.16 0.16 89 1011.0
20260506103603 62 77 4.0 8.0 0.00 0.16 0.16 87 1010.9
20260506103203 62 73 4.0 7.0 0.00 0.16 0.16 87 1010.8
20260506103016 62 72 4.0 7.0 0.00 0.17 0.16 87 1010.8
20260506102615 62 70 4.0 8.0 0.00 0.17 0.16 87 1010.8
20260506102003 62 69 4.0 8.0 0.01 0.17 0.16 86 1010.6
20260506101603 62 74 3.0 6.0 0.01 0.17 0.16 85 1011.1
20260506101203 63 83 2.0 4.0 0.01 0.17 0.16 85 1011.1
20260506100803 63 102 1.0 4.0 0.02 0.17 0.16 84 1011.2
20260506100403 62 93 2.0 6.0 0.02 0.17 0.16 86 1011.1
20260506095603 62 82 4.0 6.0 0.03 0.17 0.16 88 1011.3
20260506095203 62 77 3.0 6.0 0.03 0.17 0.16 90 1011.2
20260506094803 62 76 2.0 6.0 0.03 0.17 0.16 90 1011.3
20260506094403 62 77 2.0 6.0 0.03 0.17 0.16 92 1011.1
20260506094003 61 71 3.0 6.0 0.03 0.17 0.16 92 1011.0
20260506093813 61 74 3.0 6.0 0.03 0.17 0.16 91 1011.1
20260506093203 61 81 2.0 7.0 0.03 0.17 0.16 91 1011.1
20260506092803 62 107 2.0 7.0 0.03 0.17 0.16 90 1011.1
20260506092403 61 145 2.0 3.0 0.03 0.17 0.16 90 1011.2
20260506092003 61 142 2.0 4.0 0.02 0.16 0.15 89 1011.2
20260506091603 62 132 2.0 4.0 0.02 0.16 0.15 89 1011.3
20260506091414 62 120 1.0 4.0 0.02 0.16 0.15 89 1011.3
20260506090803 62 93 1.0 4.0 0.01 0.16 0.14 87 1011.3
20260506090403 62 92 2.0 4.0 0.01 0.16 0.14 87 1011.2
20260506090004 62 84 3.0 7.0 0.00 0.15 0.13 86 1011.4
20260506085603 62 76 3.0 7.0 0.00 0.15 0.13 86 1011.2
20260506085203 62 62 2.0 7.0 0.00 0.16 0.13 86 1011.1
20260506084803 62 67 2.0 3.0 0.00 0.17 0.13 85 1011.0
20260506084403 62 95 2.0 4.0 0.00 0.17 0.13 86 1011.0
20260506084003 62 83 2.0 4.0 0.00 0.18 0.13 87 1010.9
20260506083603 62 68 2.0 3.0 0.00 0.18 0.13 85 1011.1
20260506083203 62 42 2.0 3.0 0.00 0.19 0.13 86 1010.8
20260506083013 62 39 2.0 3.0 0.00 0.19 0.13 86 1010.8
20260506082403 62 43 1.0 3.0 0.00 0.19 0.13 86 1010.8
20260506082003 62 55 1.0 3.0 0.00 0.19 0.13 85 1010.7
20260506081603 62 150 1.0 2.0 0.00 0.19 0.13 86 1010.9
20260506081203 62 149 1.0 2.0 0.00 0.19 0.13 87 1010.7
20260506080803 62 78 0.0 2.0 0.00 0.19 0.13 88 1010.9
20260506080403 61 53 1.0 2.0 0.00 0.19 0.13 90 1010.9
20260506073203 60 44 1.0 3.0 0.01 0.19 0.13 94 1011.0
20260506072803 60 0 0.0 0.0 0.01 0.19 0.13 95 1011.0
20260506072403 60 0 0.0 0.0 0.01 0.19 0.13 95 1011.0
20260506072003 60 0 0.0 0.0 0.01 0.19 0.13 95 1011.1
20260506071603 60 0 0.0 0.0 0.01 0.19 0.13 96 1010.9
20260506071203 59 0 0.0 0.0 0.01 0.19 0.13 96 1011.1
20260506071015 59 0 0.0 0.0 0.01 0.19 0.13 96 1011.0
20260506070403 60 0 0.0 0.0 0.01 0.19 0.13 96 1011.0
20260506062403 58 17 1.0 3.0 0.00 0.18 0.12 96 1010.7
20260506062003 58 11 1.0 2.0 0.00 0.18 0.12 96 1010.8
20260506061603 58 354 0.0 2.0 0.00 0.18 0.12 96 1010.8
20260506061203 58 0 0.0 0.0 0.01 0.18 0.12 96 1010.9
20260506060803 58 0 0.0 0.0 0.01 0.18 0.12 96 1010.8
20260506060403 57 0 0.0 0.0 0.01 0.18 0.12 96 1010.8
20260506050803 56 60 2.0 3.0 0.00 0.17 0.11 96 1011.1
20260506050403 56 75 2.0 3.0 0.00 0.17 0.11 96 1011.1
20260506044803 56 228 0.0 3.0 0.00 0.17 0.11 96 1011.4
20260506044403 56 251 1.0 4.0 0.00 0.17 0.11 96 1011.3
20260506044003 56 253 2.0 4.0 0.00 0.17 0.11 96 1011.2
20260506043603 56 257 2.0 4.0 0.01 0.17 0.11 96 1011.4
20260506043203 56 269 1.0 2.0 0.01 0.17 0.11 96 1011.3
20260506042803 56 274 1.0 3.0 0.02 0.17 0.11 96 1011.2
20260506042403 56 281 1.0 3.0 0.03 0.17 0.11 96 1011.1
20260506042003 56 298 1.0 3.0 0.04 0.17 0.11 96 1010.9
20260506041603 56 349 0.0 2.0 0.06 0.17 0.11 95 1010.7
20260506041203 56 347 1.0 2.0 0.08 0.17 0.11 95 1010.9
20260506040803 56 352 1.0 4.0 0.10 0.17 0.11 95 1010.7
20260506040616 56 355 1.0 4.0 0.10 0.17 0.11 95 1010.8
20260506040004 56 27 2.0 4.0 0.11 0.17 0.11 95 1010.7
20260506035603 56 45 3.0 7.0 0.11 0.17 0.11 95 1010.5
20260506035203 56 43 3.0 7.0 0.11 0.17 0.11 95 1010.5
20260506034803 56 23 3.0 4.0 0.11 0.17 0.11 95 1010.6
20260506034403 56 360 2.0 4.0 0.11 0.17 0.11 95 1010.7
20260506034212 56 356 1.0 4.0 0.11 0.17 0.11 95 1010.5
20260506033817 56 327 1.0 3.0 0.10 0.16 0.10 95 1010.8
20260506033416 56 292 0.0 2.0 0.10 0.16 0.10 95 1010.9
20260506033016 56 330 0.0 2.0 0.09 0.15 0.09 95 1010.8
20260506032615 56 44 1.0 2.0 0.09 0.15 0.09 95 1011.1
20260506032003 56 70 2.0 3.0 0.07 0.13 0.07 94 1011.1
20260506031814 56 81 2.0 3.0 0.06 0.12 0.07 94 1011.3
20260506031203 56 216 2.0 6.0 0.03 0.09 0.03 94 1011.4
20260506030803 56 215 2.0 6.0 0.01 0.07 0.01 94 1011.7
20260506030403 56 249 1.0 3.0 0.00 0.06 0.00 94 1011.7
20260506030216 56 308 0.0 1.0 0.00 0.06 0.00 94 1011.4
20260506025816 56 314 0.0 1.0 0.00 0.06 0.00 93 1011.6
20260506025415 56 314 0.0 1.0 0.00 0.06 0.00 93 1011.5
20260506024803 56 0 0.0 0.0 0.00 0.06 0.00 93 1011.5
20260506024403 56 0 0.0 0.0 0.00 0.06 0.00 93 1011.4
20260506024004 56 0 0.0 0.0 0.00 0.06 0.00 93 1011.4
20260506023603 56 347 0.0 2.0 0.00 0.06 0.00 93 1011.6
20260506023203 56 351 0.0 2.0 0.00 0.06 0.00 93 1011.5
20260506022803 56 351 0.0 2.0 0.00 0.06 0.00 93 1011.4
20260506022403 56 358 0.0 1.0 0.00 0.06 0.00 93 1011.7
20260506022003 56 1 0.0 1.0 0.00 0.06 0.00 93 1011.6
20260506021603 56 6 0.0 1.0 0.00 0.06 0.00 93 1011.6
20260506021203 56 5 0.0 2.0 0.00 0.06 0.00 93 1011.8
20260506020803 56 6 0.0 2.0 0.00 0.06 0.00 93 1011.6
20260506020403 56 7 0.0 1.0 0.00 0.06 0.00 93 1011.6
20260506020217 56 6 1.0 1.0 0.00 0.06 0.00 93 1011.6
20260506015603 56 346 1.0 3.0 0.00 0.06 0.00 93 1011.8
20260506015416 56 342 1.0 3.0 0.00 0.06 0.00 93 1011.8
20260506014803 56 340 1.0 3.0 0.00 0.06 0.00 93 1011.8
20260506014403 56 349 1.0 6.0 0.00 0.06 0.00 93 1012.0
20260506014003 56 350 1.0 6.0 0.00 0.06 0.00 93 1012.0
20260506013603 56 345 1.0 3.0 0.00 0.06 0.00 93 1011.8
20260506013203 56 341 1.0 2.0 0.00 0.06 0.00 94 1011.9
20260506012803 56 353 1.0 3.0 0.00 0.06 0.00 94 1012.0
20260506012403 56 354 1.0 3.0 0.00 0.06 0.00 94 1011.9
20260506012216 56 352 1.0 3.0 0.00 0.06 0.00 94 1012.0
20260506011603 56 355 1.0 4.0 0.00 0.06 0.00 94 1011.9
20260506011203 56 4 1.0 4.0 0.00 0.06 0.00 94 1012.1
20260506011014 56 7 1.0 4.0 0.00 0.06 0.00 94 1012.0
20260506010403 56 10 1.0 2.0 0.00 0.06 0.00 94 1011.9
20260506010003 56 12 1.0 2.0 0.00 0.06 0.00 94 1012.0
20260506005603 56 9 1.0 2.0 0.00 0.06 0.00 94 1012.0
20260506005203 56 6 1.0 4.0 0.00 0.06 0.00 94 1012.0
20260506004803 56 7 2.0 4.0 0.00 0.06 0.00 94 1011.9
20260506004403 56 22 2.0 4.0 0.00 0.06 0.00 94 1012.0
20260506004214 56 25 1.0 3.0 0.00 0.06 0.00 94 1012.0
20260506003603 55 38 1.0 2.0 0.00 0.06 0.00 94 1012.2
20260506003413 55 15 0.0 2.0 0.00 0.06 0.00 94 1012.3
20260506002803 56 0 0.0 0.0 0.00 0.06 0.00 93 1012.1
20260506002403 56 332 0.0 1.0 0.00 0.06 0.00 93 1012.2
20260506002003 56 340 0.0 2.0 0.00 0.06 0.00 93 1012.3
20260506001603 56 343 0.0 2.0 0.00 0.06 0.00 93 1012.2
20260506001203 56 356 0.0 2.0 0.00 0.06 0.00 93 1012.1
20260506000803 56 10 0.0 2.0 0.00 0.06 0.00 93 1012.3
20260506000403 56 9 1.0 2.0 0.00 0.06 0.00 93 1012.4
20260506000003 56 3 1.0 2.0 0.00 0.06 0.00 93 1012.2
20260505235603 56 360 0.0 2.0 0.00 0.06 0.00 93 1012.3
20260505235203 56 357 1.0 2.0 0.00 0.06 0.00 93 1012.4
20260505234803 56 352 1.0 2.0 0.00 0.06 0.00 93 1012.4
20260505234403 56 342 1.0 3.0 0.00 0.06 0.00 93 1012.3
20260505234215 56 343 1.0 3.0 0.00 0.06 0.00 93 1012.2
20260505233603 56 345 2.0 3.0 0.00 0.06 0.00 94 1012.4
20260505233203 56 353 1.0 3.0 0.00 0.06 0.00 94 1012.3
20260505233013 56 353 1.0 3.0 0.00 0.06 0.00 94 1012.4
20260505232403 56 357 1.0 3.0 0.00 0.06 0.00 94 1012.3
20260505232003 56 2 1.0 3.0 0.00 0.06 0.00 94 1012.3
20260505231603 56 2 2.0 3.0 0.00 0.06 0.00 94 1012.4
20260505231203 56 359 3.0 6.0 0.00 0.06 0.00 94 1012.4
20260505231015 56 2 2.0 6.0 0.00 0.06 0.00 94 1012.5
20260505230403 56 359 2.0 6.0 0.00 0.06 0.00 93 1012.4
20260505230214 56 358 2.0 4.0 0.00 0.06 0.00 93 1012.5
20260505225603 56 352 2.0 4.0 0.00 0.06 0.00 93 1012.6
20260505225203 56 357 2.0 6.0 0.00 0.06 0.00 93 1012.7
20260505224803 57 3 2.0 6.0 0.00 0.06 0.00 93 1012.7
20260505224616 57 6 2.0 6.0 0.00 0.06 0.00 93 1012.8
20260505224003 57 5 2.0 6.0 0.00 0.06 0.00 93 1012.8
20260505223815 57 2 3.0 9.0 0.00 0.06 0.00 93 1012.9
20260505223203 57 357 4.0 9.0 0.00 0.06 0.00 93 1012.9
20260505222803 57 356 3.0 8.0 0.00 0.06 0.00 93 1013.0
20260505222403 57 1 3.0 8.0 0.00 0.06 0.00 93 1012.9
20260505222003 57 7 3.0 7.0 0.00 0.06 0.00 93 1012.9
20260505221603 57 5 3.0 7.0 0.00 0.06 0.00 93 1013.0
20260505221416 57 6 3.0 7.0 0.00 0.06 0.00 93 1013.1
20260505220803 57 358 3.0 6.0 0.00 0.06 0.00 93 1013.2
20260505220615 57 356 2.0 6.0 0.00 0.06 0.00 92 1013.1
20260505220004 57 1 3.0 6.0 0.00 0.06 0.00 92 1013.1
20260505215603 57 1 3.0 6.0 0.00 0.06 0.06 92 1013.1
20260505215413 57 357 3.0 6.0 0.00 0.06 0.06 92 1013.1
20260505215018 57 355 2.0 7.0 0.00 0.06 0.06 92 1013.2
20260505214403 57 355 2.0 7.0 0.00 0.06 0.06 92 1013.2
20260505214003 57 353 2.0 4.0 0.00 0.06 0.06 92 1013.2
20260505213603 57 351 2.0 4.0 0.00 0.06 0.06 91 1013.1
20260505213203 58 352 2.0 4.0 0.00 0.06 0.06 91 1013.1
20260505213014 58 349 2.0 4.0 0.00 0.06 0.06 91 1013.3
20260505212403 58 357 2.0 4.0 0.00 0.06 0.06 91 1013.3
20260505212003 58 1 2.0 4.0 0.00 0.06 0.06 91 1013.4
20260505211603 58 358 2.0 7.0 0.00 0.06 0.06 91 1013.5
20260505211203 58 360 2.0 7.0 0.00 0.06 0.06 91 1013.4
20260505211016 58 360 2.0 7.0 0.00 0.06 0.06 91 1013.4
20260505210403 58 2 2.0 6.0 0.00 0.06 0.06 91 1013.5
20260505210003 58 3 2.0 6.0 0.00 0.06 0.06 91 1013.4
20260505205603 58 359 2.0 6.0 0.00 0.06 0.06 91 1013.4
20260505205203 58 352 2.0 4.0 0.00 0.06 0.06 91 1013.3
20260505204803 58 354 3.0 8.0 0.00 0.06 0.06 91 1013.4
20260505204403 58 359 3.0 8.0 0.00 0.06 0.06 91 1013.4
20260505204003 58 359 3.0 8.0 0.00 0.06 0.06 91 1013.4
20260505203603 58 353 2.0 6.0 0.00 0.06 0.06 91 1013.3
20260505203203 58 353 2.0 7.0 0.00 0.06 0.06 91 1013.3
20260505202803 58 354 3.0 7.0 0.00 0.06 0.06 91 1013.3
20260505202403 58 347 3.0 7.0 0.00 0.06 0.06 91 1013.3
20260505202214 58 344 3.0 7.0 0.00 0.06 0.06 91 1013.3
20260505201603 58 350 3.0 9.0 0.00 0.06 0.06 91 1013.4
20260505201203 58 3 4.0 9.0 0.00 0.06 0.06 91 1013.4
20260505200803 58 2 4.0 9.0 0.00 0.06 0.06 91 1013.5
20260505200403 58 358 4.0 9.0 0.00 0.06 0.06 91 1013.4
20260505200003 58 354 4.0 9.0 0.00 0.06 0.06 91 1013.3
20260505195603 58 350 3.0 8.0 0.00 0.06 0.06 91 1013.3
20260505195203 58 343 2.0 4.0 0.00 0.06 0.06 91 1013.4
20260505194803 58 341 2.0 7.0 0.00 0.06 0.06 91 1013.3
20260505194403 58 342 3.0 7.0 0.00 0.06 0.06 91 1013.2
20260505194212 58 342 3.0 7.0 0.00 0.06 0.06 91 1013.3
20260505193603 58 344 2.0 6.0 0.00 0.06 0.06 91 1013.4
20260505193203 58 341 2.0 3.0 0.00 0.06 0.06 91 1013.4
20260505193016 58 345 2.0 7.0 0.00 0.06 0.06 91 1013.4
20260505192615 58 352 2.0 7.0 0.00 0.06 0.06 91 1013.3
20260505192215 58 360 3.0 7.0 0.00 0.06 0.06 91 1013.3
20260505191603 58 355 2.0 6.0 0.00 0.06 0.06 91 1013.2
20260505191203 58 350 2.0 6.0 0.00 0.06 0.06 91 1013.3
20260505190803 58 354 2.0 4.0 0.00 0.06 0.06 91 1013.3
20260505190617 58 354 2.0 4.0 0.00 0.06 0.06 91 1013.3
20260505190004 58 352 2.0 6.0 0.00 0.06 0.06 91 1013.2
20260505185603 58 357 2.0 6.0 0.00 0.06 0.06 91 1013.4
20260505185203 58 357 2.0 6.0 0.00 0.06 0.06 91 1013.3
20260505184803 58 359 2.0 4.0 0.00 0.06 0.06 91 1013.1
20260505184403 58 359 2.0 4.0 0.00 0.06 0.06 91 1013.0
20260505184003 58 2 2.0 4.0 0.00 0.06 0.06 91 1013.1
20260505183603 58 2 3.0 7.0 0.00 0.06 0.06 90 1013.2
20260505183203 58 1 3.0 7.0 0.00 0.06 0.06 91 1013.2
20260505182803 58 4 2.0 7.0 0.00 0.06 0.06 90 1013.1
20260505182616 58 3 2.0 4.0 0.00 0.06 0.06 90 1013.1
20260505182215 58 4 2.0 3.0 0.00 0.06 0.06 91 1013.1
20260505181603 58 360 2.0 5.0 0.00 0.06 0.06 90 1013.0
20260505181203 58 356 3.0 7.0 0.00 0.06 0.06 90 1013.1
20260505180803 58 356 3.0 7.0 0.00 0.06 0.06 90 1013.2
20260505180403 58 360 3.0 6.0 0.00 0.06 0.06 90 1013.0
20260505180003 58 3 3.0 8.0 0.00 0.06 0.06 90 1013.1
20260505175603 58 5 3.0 8.0 0.00 0.06 0.06 90 1013.1
20260505175416 58 6 4.0 8.0 0.00 0.06 0.06 90 1013.0
20260505174803 59 9 3.0 7.0 0.00 0.06 0.06 90 1012.9
20260505174403 59 2 3.0 6.0 0.00 0.06 0.06 90 1012.9
20260505174214 59 360 4.0 8.0 0.00 0.06 0.06 90 1012.9
20260505173603 59 360 4.0 8.0 0.00 0.06 0.06 90 1012.9
20260505173203 59 355 4.0 8.0 0.00 0.06 0.06 90 1012.9
20260505173017 59 360 4.0 8.0 0.00 0.06 0.06 90 1013.0
20260505172403 59 356 5.0 8.0 0.00 0.06 0.06 90 1013.1
20260505172003 59 359 5.0 9.0 0.00 0.06 0.06 90 1012.9
20260505171603 59 5 6.0 9.0 0.00 0.06 0.06 89 1012.9
20260505171203 59 9 6.0 9.0 0.00 0.06 0.06 90 1012.8
20260505170803 59 12 6.0 10.0 0.00 0.06 0.06 90 1012.8
20260505170403 59 13 6.0 10.0 0.00 0.06 0.06 90 1012.8
20260505170003 59 8 6.0 10.0 0.00 0.06 0.06 90 1012.8
20260505165603 59 11 6.0 11.0 0.00 0.06 0.06 90 1012.7
20260505165203 60 14 6.0 11.0 0.00 0.06 0.06 90 1012.8
20260505164803 60 9 6.0 11.0 0.00 0.06 0.06 90 1012.9
20260505164403 60 9 5.0 10.0 0.00 0.06 0.06 90 1012.6
20260505164003 60 8 5.0 9.0 0.00 0.06 0.06 89 1012.8
20260505163814 60 11 5.0 9.0 0.00 0.06 0.06 89 1012.9
20260505163203 60 7 5.0 9.0 0.00 0.06 0.06 89 1013.0
20260505163012 60 5 5.0 9.0 0.00 0.06 0.06 89 1013.0
20260505162403 60 356 5.0 10.0 0.00 0.06 0.06 89 1013.0
20260505162003 60 358 5.0 10.0 0.00 0.06 0.06 89 1013.0
20260505161603 60 1 5.0 9.0 0.00 0.06 0.06 89 1013.1
20260505161203 60 3 5.0 9.0 0.00 0.06 0.06 89 1013.0
20260505161014 60 2 4.0 9.0 0.00 0.06 0.06 89 1013.1
20260505160614 60 3 5.0 8.0 0.00 0.06 0.06 88 1012.9